| time (UTC) | temp C | wind direction | speed KPH | gust KPH | rain 1hr cm | rain 24hr cm | rain mn cm | humidity % | barometer mb |
| 20260506165423 | 10 | 315 | 4.8 | 8.0 | 0.00 | 0.00 | 0.00 | 49 | 1016.6 |
| 20260506164918 | 10 | 243 | 11.3 | 16.1 | 0.00 | 0.00 | 0.00 | 46 | 1016.6 |
| 20260506164415 | 8 | 273 | 8.0 | 11.3 | 0.00 | 0.00 | 0.00 | 47 | 1016.5 |
| 20260506163914 | 9 | 246 | 6.4 | 8.0 | 0.00 | 0.00 | 0.00 | 49 | 1016.8 |
| 20260506163407 | 8 | 274 | 9.7 | 19.3 | 0.00 | 0.00 | 0.00 | 52 | 1016.9 |
| 20260506162903 | 8 | 149 | 1.6 | 3.2 | 0.00 | 0.00 | 0.00 | 54 | 1016.8 |
| 20260506162401 | 8 | 5 | 4.8 | 8.0 | 0.00 | 0.00 | 0.00 | 54 | 1016.7 |
| 20260506161858 | 8 | 269 | 9.7 | 14.5 | 0.00 | 0.00 | 0.00 | 54 | 1017.0 |
| 20260506161355 | 8 | 335 | 3.2 | 4.8 | 0.00 | 0.00 | 0.00 | 55 | 1016.9 |
| 20260506160853 | 8 | 334 | 6.4 | 8.0 | 0.00 | 0.00 | 0.00 | 54 | 1017.1 |
| 20260506160350 | 8 | 286 | 6.4 | 8.0 | 0.00 | 0.00 | 0.00 | 53 | 1016.8 |
| 20260506155849 | 8 | 285 | 11.3 | 14.5 | 0.00 | 0.00 | 0.00 | 55 | 1016.9 |
| 20260506155345 | 8 | 196 | 3.2 | 4.8 | 0.00 | 0.00 | 0.00 | 55 | 1016.8 |
| 20260506153502 | 8 | 191 | 3.2 | 4.8 | 0.00 | 0.00 | 0.00 | 57 | 1016.8 |
| 20260506152959 | 8 | 349 | 3.2 | 4.8 | 0.00 | 0.00 | 0.00 | 56 | 1016.7 |
| 20260506152456 | 8 | 205 | 0.0 | 3.2 | 0.00 | 0.00 | 0.00 | 56 | 1016.7 |
| 20260506151954 | 8 | 1 | 9.7 | 14.5 | 0.00 | 0.00 | 0.00 | 55 | 1016.8 |
| 20260506151451 | 8 | 298 | 6.4 | 8.0 | 0.00 | 0.00 | 0.00 | 56 | 1016.5 |
| 20260506150949 | 7 | 348 | 8.0 | 11.3 | 0.00 | 0.00 | 0.00 | 59 | 1016.6 |
| 20260506150445 | 7 | 280 | 12.9 | 19.3 | 0.00 | 0.00 | 0.00 | 58 | 1016.7 |
| 20260506145942 | 7 | 29 | 3.2 | 8.0 | 0.00 | 0.00 | 0.00 | 60 | 1016.5 |
| 20260506145438 | 7 | 5 | 3.2 | 3.2 | 0.00 | 0.00 | 0.00 | 58 | 1016.6 |
| 20260506144936 | 8 | 65 | 8.0 | 8.0 | 0.00 | 0.00 | 0.00 | 58 | 1016.6 |
| 20260506144432 | 8 | 274 | 14.5 | 16.1 | 0.00 | 0.00 | 0.00 | 57 | 1016.5 |
| 20260506143931 | 8 | 57 | 6.4 | 8.0 | 0.00 | 0.00 | 0.00 | 59 | 1016.3 |
| 20260506143427 | 7 | 192 | 0.0 | 0.0 | 0.00 | 0.00 | 0.00 | 59 | 1016.2 |
| 20260506142926 | 7 | 6 | 9.7 | 14.5 | 0.00 | 0.00 | 0.00 | 59 | 1016.4 |
| 20260506142423 | 7 | 138 | 0.0 | 0.0 | 0.00 | 0.00 | 0.00 | 58 | 1016.3 |
| 20260506141921 | 7 | 103 | 4.8 | 8.0 | 0.00 | 0.00 | 0.00 | 58 | 1016.3 |
| 20260506141419 | 7 | 277 | 8.0 | 11.3 | 0.00 | 0.00 | 0.00 | 57 | 1016.2 |
| 20260506140917 | 7 | 24 | 11.3 | 14.5 | 0.00 | 0.00 | 0.00 | 56 | 1016.0 |
| 20260506140414 | 7 | 267 | 1.6 | 3.2 | 0.00 | 0.00 | 0.00 | 56 | 1015.9 |
| 20260506135911 | 7 | 350 | 6.4 | 11.3 | 0.00 | 0.00 | 0.00 | 57 | 1016.0 |
| 20260506135408 | 7 | 329 | 3.2 | 3.2 | 0.00 | 0.00 | 0.00 | 57 | 1016.0 |
| 20260506134904 | 7 | 128 | 6.4 | 8.0 | 0.00 | 0.00 | 0.00 | 56 | 1016.1 |
| 20260506134400 | 6 | 126 | 3.2 | 3.2 | 0.00 | 0.00 | 0.00 | 57 | 1016.0 |
| 20260506133857 | 7 | 27 | 9.7 | 14.5 | 0.00 | 0.00 | 0.00 | 56 | 1015.9 |
| 20260506133354 | 6 | 85 | 4.8 | 8.0 | 0.00 | 0.00 | 0.00 | 57 | 1016.0 |
| 20260506132850 | 6 | 100 | 3.2 | 11.3 | 0.00 | 0.00 | 0.00 | 58 | 1016.0 |
| 20260506132348 | 6 | 190 | 3.2 | 4.8 | 0.00 | 0.00 | 0.00 | 59 | 1016.0 |
| 20260506131846 | 6 | 60 | 6.4 | 8.0 | 0.00 | 0.00 | 0.00 | 57 | 1015.7 |
| 20260506131342 | 6 | 29 | 1.6 | 4.8 | 0.00 | 0.00 | 0.00 | 58 | 1015.9 |
| 20260506130839 | 6 | 24 | 9.7 | 16.1 | 0.00 | 0.00 | 0.00 | 59 | 1016.1 |
| 20260506130335 | 5 | 330 | 9.7 | 11.3 | 0.00 | 0.00 | 0.00 | 60 | 1015.7 |
| 20260506125833 | 5 | 69 | 8.0 | 11.3 | 0.00 | 0.00 | 0.00 | 61 | 1015.6 |
| 20260506125331 | 5 | 56 | 1.6 | 4.8 | 0.00 | 0.00 | 0.00 | 62 | 1015.7 |
| 20260506124830 | 5 | 330 | 9.7 | 16.1 | 0.00 | 0.00 | 0.00 | 64 | 1015.6 |
| 20260506124326 | 5 | 47 | 4.8 | 4.8 | 0.00 | 0.00 | 0.00 | 65 | 1015.7 |
| 20260506123824 | 5 | 343 | 6.4 | 8.0 | 0.00 | 0.00 | 0.00 | 68 | 1015.6 |
| 20260506123322 | 5 | 38 | 6.4 | 8.0 | 0.00 | 0.00 | 0.00 | 69 | 1015.5 |
| 20260506122819 | 5 | 103 | 4.8 | 8.0 | 0.00 | 0.00 | 0.00 | 69 | 1015.5 |
| 20260506122316 | 5 | 122 | 3.2 | 4.8 | 0.00 | 0.00 | 0.00 | 67 | 1015.7 |
| 20260506121814 | 5 | 83 | 3.2 | 4.8 | 0.00 | 0.00 | 0.00 | 69 | 1015.3 |
| 20260506121311 | 5 | 56 | 6.4 | 11.3 | 0.00 | 0.00 | 0.00 | 67 | 1015.2 |
| 20260506120808 | 3 | 42 | 6.4 | 8.0 | 0.00 | 0.00 | 0.00 | 70 | 1015.1 |
| 20260506120306 | 3 | 47 | 12.9 | 16.1 | 0.00 | 0.00 | 0.00 | 70 | 1015.0 |
| 20260506115803 | 3 | 321 | 11.3 | 14.5 | 0.00 | 0.00 | 0.00 | 70 | 1014.8 |
| 20260506115306 | 3 | 57 | 1.6 | 3.2 | 0.00 | 0.00 | 0.00 | 73 | 1014.7 |
| 20260506114759 | 3 | 152 | 0.0 | 0.0 | 0.00 | 0.00 | 0.00 | 75 | 1015.0 |
| 20260506114256 | 4 | 325 | 9.7 | 16.1 | 0.00 | 0.00 | 0.00 | 75 | 1014.9 |
| 20260506113755 | 4 | 285 | 4.8 | 4.8 | 0.00 | 0.00 | 0.00 | 75 | 1014.6 |
| 20260506113252 | 4 | 73 | 3.2 | 4.8 | 0.00 | 0.00 | 0.00 | 75 | 1014.5 |
| 20260506112748 | 4 | 101 | 3.2 | 4.8 | 0.00 | 0.00 | 0.00 | 76 | 1014.6 |
| 20260506112246 | 4 | 157 | 1.6 | 3.2 | 0.00 | 0.00 | 0.00 | 76 | 1014.5 |
| 20260506111743 | 3 | 1 | 3.2 | 4.8 | 0.00 | 0.00 | 0.00 | 76 | 1014.5 |
| 20260506111241 | 3 | 214 | 3.2 | 8.0 | 0.00 | 0.00 | 0.00 | 76 | 1014.3 |
| 20260506110737 | 3 | 280 | 4.8 | 8.0 | 0.00 | 0.00 | 0.00 | 76 | 1014.2 |
| 20260506110235 | 3 | 212 | 0.0 | 0.0 | 0.00 | 0.00 | 0.00 | 77 | 1013.9 |
| 20260506105731 | 3 | 56 | 1.6 | 3.2 | 0.00 | 0.00 | 0.00 | 77 | 1013.9 |
| 20260506105229 | 3 | 214 | 0.0 | 0.0 | 0.00 | 0.00 | 0.00 | 78 | 1013.9 |
| 20260506104727 | 3 | 125 | 0.0 | 3.2 | 0.00 | 0.00 | 0.00 | 77 | 1013.7 |
| 20260506104224 | 3 | 232 | 3.2 | 3.2 | 0.00 | 0.00 | 0.00 | 77 | 1014.0 |
| 20260506103721 | 3 | 213 | 0.0 | 0.0 | 0.00 | 0.00 | 0.00 | 77 | 1013.8 |
| 20260506103218 | 3 | 245 | 0.0 | 0.0 | 0.00 | 0.00 | 0.00 | 77 | 1013.5 |
| 20260506102716 | 3 | 216 | 0.0 | 0.0 | 0.00 | 0.00 | 0.00 | 77 | 1013.7 |
| 20260506102214 | 3 | 173 | 0.0 | 0.0 | 0.00 | 0.00 | 0.00 | 76 | 1013.3 |
| 20260506101710 | 4 | 164 | 0.0 | 0.0 | 0.00 | 0.00 | 0.00 | 76 | 1013.3 |
| 20260506101207 | 4 | 217 | 0.0 | 0.0 | 0.00 | 0.00 | 0.00 | 76 | 1013.4 |
| 20260506100705 | 4 | 193 | 0.0 | 0.0 | 0.00 | 0.00 | 0.00 | 76 | 1013.2 |
| 20260506100203 | 4 | 208 | 0.0 | 0.0 | 0.00 | 0.00 | 0.00 | 76 | 1013.1 |
| 20260506095701 | 5 | 259 | 0.0 | 0.0 | 0.00 | 0.00 | 0.00 | 76 | 1013.1 |
| 20260506095157 | 5 | 225 | 0.0 | 3.2 | 0.00 | 0.00 | 0.00 | 75 | 1013.2 |
| 20260506094655 | 5 | 341 | 3.2 | 4.8 | 0.00 | 0.00 | 0.00 | 76 | 1012.8 |
| 20260506094152 | 5 | 175 | 0.0 | 0.0 | 0.00 | 0.00 | 0.00 | 77 | 1012.6 |
| 20260506093651 | 5 | 203 | 0.0 | 0.0 | 0.00 | 0.00 | 0.00 | 78 | 1012.8 |
| 20260506093148 | 5 | 126 | 1.6 | 3.2 | 0.00 | 0.00 | 0.00 | 80 | 1012.8 |
| 20260506092645 | 5 | 144 | 0.0 | 3.2 | 0.00 | 0.00 | 0.00 | 84 | 1012.6 |
| 20260506092142 | 5 | 212 | 0.0 | 0.0 | 0.00 | 0.00 | 0.00 | 84 | 1012.9 |
| 20260506091640 | 5 | 216 | 0.0 | 3.2 | 0.00 | 0.00 | 0.00 | 84 | 1012.8 |
| 20260506091137 | 5 | 210 | 0.0 | 0.0 | 0.00 | 0.00 | 0.00 | 84 | 1012.7 |
| 20260506090636 | 5 | 259 | 4.8 | 8.0 | 0.00 | 0.00 | 0.00 | 84 | 1012.7 |
| 20260506090131 | 6 | 235 | 1.6 | 3.2 | 0.00 | 0.00 | 0.00 | 84 | 1012.7 |
| 20260506085629 | 6 | 288 | 1.6 | 3.2 | 0.00 | 0.00 | 0.00 | 83 | 1012.7 |
| 20260506085125 | 6 | 217 | 0.0 | 0.0 | 0.00 | 0.00 | 0.00 | 83 | 1012.6 |
| 20260506084621 | 6 | 218 | 3.2 | 4.8 | 0.00 | 0.00 | 0.00 | 82 | 1012.6 |
| 20260506084118 | 6 | 228 | 0.0 | 3.2 | 0.00 | 0.00 | 0.00 | 82 | 1012.8 |
| 20260506083615 | 6 | 260 | 0.0 | 3.2 | 0.00 | 0.00 | 0.00 | 82 | 1012.7 |
| 20260506083113 | 6 | 208 | 0.0 | 0.0 | 0.00 | 0.00 | 0.00 | 81 | 1012.8 |
| 20260506082609 | 6 | 241 | 3.2 | 3.2 | 0.00 | 0.00 | 0.00 | 81 | 1012.7 |
| 20260506082105 | 6 | 227 | 0.0 | 0.0 | 0.00 | 0.00 | 0.00 | 81 | 1012.9 |
| 20260506081603 | 6 | 176 | 0.0 | 0.0 | 0.00 | 0.00 | 0.00 | 80 | 1012.8 |
| 20260506081100 | 6 | 219 | 0.0 | 0.0 | 0.00 | 0.00 | 0.00 | 80 | 1012.6 |
| 20260506080558 | 6 | 211 | 0.0 | 0.0 | 0.00 | 0.00 | 0.00 | 79 | 1012.9 |
| 20260506073038 | 7 | 209 | 1.6 | 3.2 | 0.00 | 0.00 | 0.00 | 75 | 1012.5 |
| 20260506072536 | 7 | 221 | 0.0 | 0.0 | 0.00 | 0.00 | 0.00 | 74 | 1012.8 |
| 20260506072033 | 7 | 208 | 1.6 | 3.2 | 0.00 | 0.00 | 0.00 | 74 | 1012.7 |
| 20260506071531 | 7 | 251 | 3.2 | 4.8 | 0.00 | 0.00 | 0.00 | 72 | 1012.4 |
| 20260506071028 | 7 | 294 | 1.6 | 3.2 | 0.00 | 0.00 | 0.00 | 71 | 1012.6 |
| 20260506070525 | 7 | 270 | 6.4 | 8.0 | 0.00 | 0.00 | 0.00 | 70 | 1012.6 |
| 20260506062503 | 7 | 221 | 0.0 | 0.0 | 0.00 | 0.00 | 0.00 | 62 | 1012.6 |
| 20260506061959 | 7 | 237 | 1.6 | 3.2 | 0.00 | 0.00 | 0.00 | 61 | 1012.7 |
| 20260506061455 | 8 | 244 | 1.6 | 3.2 | 0.00 | 0.00 | 0.00 | 61 | 1012.6 |
| 20260506060953 | 8 | 218 | 1.6 | 4.8 | 0.00 | 0.00 | 0.00 | 60 | 1012.8 |
| 20260506060451 | 8 | 292 | 4.8 | 4.8 | 0.00 | 0.00 | 0.00 | 59 | 1013.0 |
| 20260506050920 | 8 | 270 | 4.8 | 4.8 | 0.00 | 0.00 | 0.00 | 54 | 1012.3 |
| 20260506050418 | 8 | 268 | 6.4 | 8.0 | 0.00 | 0.00 | 0.00 | 54 | 1012.5 |
| 20260506044908 | 8 | 261 | 3.2 | 4.8 | 0.00 | 0.00 | 0.00 | 54 | 1012.6 |
| 20260506044406 | 8 | 218 | 4.8 | 8.0 | 0.00 | 0.00 | 0.00 | 55 | 1012.4 |
| 20260506043903 | 8 | 268 | 4.8 | 8.0 | 0.00 | 0.00 | 0.00 | 53 | 1012.2 |
| 20260506043400 | 8 | 269 | 4.8 | 4.8 | 0.00 | 0.00 | 0.00 | 53 | 1011.9 |
| 20260506042858 | 8 | 221 | 3.2 | 4.8 | 0.00 | 0.00 | 0.00 | 54 | 1012.0 |
| 20260506042357 | 8 | 280 | 8.0 | 11.3 | 0.00 | 0.00 | 0.00 | 52 | 1012.2 |
| 20260506041855 | 8 | 269 | 8.0 | 11.3 | 0.00 | 0.00 | 0.00 | 52 | 1012.0 |
| 20260506041352 | 8 | 284 | 9.7 | 14.5 | 0.00 | 0.00 | 0.00 | 52 | 1012.4 |
| 20260506040849 | 8 | 251 | 4.8 | 8.0 | 0.00 | 0.00 | 0.00 | 52 | 1012.4 |
| 20260506040346 | 8 | 204 | 4.8 | 4.8 | 0.00 | 0.00 | 0.00 | 53 | 1012.3 |
| 20260506035842 | 8 | 210 | 3.2 | 4.8 | 0.00 | 0.13 | 0.13 | 53 | 1012.4 |
| 20260506035340 | 8 | 237 | 4.8 | 8.0 | 0.00 | 0.13 | 0.13 | 52 | 1012.3 |
| 20260506034837 | 8 | 255 | 4.8 | 4.8 | 0.00 | 0.13 | 0.13 | 52 | 1012.4 |
| 20260506034334 | 8 | 239 | 3.2 | 4.8 | 0.00 | 0.13 | 0.13 | 52 | 1012.4 |
| 20260506033831 | 8 | 200 | 3.2 | 3.2 | 0.00 | 0.13 | 0.13 | 52 | 1012.3 |
| 20260506033328 | 9 | 240 | 6.4 | 8.0 | 0.00 | 0.13 | 0.13 | 52 | 1012.1 |
| 20260506032825 | 9 | 285 | 8.0 | 11.3 | 0.00 | 0.13 | 0.13 | 51 | 1012.1 |
| 20260506032322 | 9 | 280 | 8.0 | 11.3 | 0.00 | 0.13 | 0.13 | 52 | 1012.4 |
| 20260506031819 | 8 | 210 | 1.6 | 3.2 | 0.00 | 0.13 | 0.13 | 52 | 1012.3 |
| 20260506031316 | 9 | 219 | 3.2 | 3.2 | 0.00 | 0.13 | 0.13 | 53 | 1012.5 |
| 20260506030814 | 9 | 272 | 3.2 | 4.8 | 0.00 | 0.13 | 0.13 | 52 | 1012.3 |
| 20260506030311 | 9 | 244 | 4.8 | 4.8 | 0.00 | 0.13 | 0.13 | 51 | 1012.3 |
| 20260506025808 | 9 | 216 | 3.2 | 3.2 | 0.00 | 0.13 | 0.13 | 51 | 1012.1 |
| 20260506025306 | 9 | 270 | 3.2 | 4.8 | 0.00 | 0.13 | 0.13 | 52 | 1012.2 |
| 20260506024802 | 9 | 231 | 3.2 | 3.2 | 0.00 | 0.13 | 0.13 | 51 | 1012.1 |
| 20260506024258 | 9 | 217 | 3.2 | 3.2 | 0.00 | 0.13 | 0.13 | 51 | 1012.1 |
| 20260506023754 | 9 | 222 | 0.0 | 0.0 | 0.00 | 0.13 | 0.13 | 51 | 1012.1 |
| 20260506023252 | 9 | 195 | 3.2 | 4.8 | 0.00 | 0.13 | 0.13 | 52 | 1012.1 |
| 20260506022748 | 9 | 211 | 1.6 | 3.2 | 0.00 | 0.13 | 0.13 | 52 | 1012.2 |
| 20260506022246 | 9 | 206 | 4.8 | 8.0 | 0.00 | 0.13 | 0.13 | 51 | 1011.9 |
| 20260506021744 | 9 | 205 | 3.2 | 4.8 | 0.00 | 0.13 | 0.13 | 51 | 1012.1 |
| 20260506021240 | 9 | 206 | 0.0 | 0.0 | 0.00 | 0.13 | 0.13 | 50 | 1012.1 |
| 20260506020737 | 9 | 204 | 0.0 | 0.0 | 0.00 | 0.13 | 0.13 | 50 | 1011.9 |
| 20260506020235 | 10 | 208 | 1.6 | 3.2 | 0.00 | 0.13 | 0.13 | 50 | 1012.1 |
| 20260506015732 | 10 | 191 | 3.2 | 3.2 | 0.00 | 0.13 | 0.13 | 48 | 1011.9 |
| 20260506015230 | 10 | 224 | 1.6 | 3.2 | 0.00 | 0.13 | 0.13 | 48 | 1011.8 |
| 20260506014727 | 10 | 276 | 4.8 | 4.8 | 0.00 | 0.13 | 0.13 | 48 | 1011.7 |
| 20260506014223 | 10 | 276 | 6.4 | 8.0 | 0.00 | 0.13 | 0.13 | 47 | 1011.7 |
| 20260506013720 | 10 | 203 | 3.2 | 4.8 | 0.00 | 0.13 | 0.13 | 48 | 1011.5 |
| 20260506013217 | 10 | 214 | 3.2 | 3.2 | 0.00 | 0.13 | 0.13 | 48 | 1011.7 |
| 20260506012713 | 10 | 203 | 6.4 | 8.0 | 0.00 | 0.13 | 0.13 | 48 | 1011.7 |
| 20260506012211 | 10 | 226 | 3.2 | 3.2 | 0.00 | 0.13 | 0.13 | 48 | 1011.3 |
| 20260506011708 | 10 | 199 | 1.6 | 3.2 | 0.00 | 0.13 | 0.13 | 48 | 1011.5 |
| 20260506011204 | 10 | 211 | 0.0 | 3.2 | 0.00 | 0.13 | 0.13 | 48 | 1011.4 |
| 20260506010703 | 10 | 204 | 1.6 | 3.2 | 0.00 | 0.13 | 0.13 | 46 | 1011.5 |
| 20260506010200 | 10 | 186 | 4.8 | 4.8 | 0.00 | 0.13 | 0.13 | 45 | 1011.4 |
| 20260506005656 | 10 | 240 | 6.4 | 8.0 | 0.00 | 0.13 | 0.13 | 46 | 1011.3 |
| 20260506005153 | 10 | 214 | 3.2 | 4.8 | 0.00 | 0.13 | 0.13 | 46 | 1011.3 |
| 20260506004649 | 10 | 233 | 3.2 | 4.8 | 0.00 | 0.13 | 0.13 | 45 | 1011.5 |
| 20260506004147 | 11 | 238 | 3.2 | 4.8 | 0.00 | 0.13 | 0.13 | 45 | 1011.5 |
| 20260506003643 | 11 | 222 | 6.4 | 14.5 | 0.00 | 0.13 | 0.13 | 45 | 1011.5 |
| 20260506003139 | 11 | 215 | 3.2 | 8.0 | 0.00 | 0.13 | 0.13 | 44 | 1011.4 |
| 20260506002635 | 11 | 203 | 4.8 | 4.8 | 0.00 | 0.13 | 0.13 | 43 | 1011.4 |
| 20260506002131 | 11 | 232 | 6.4 | 8.0 | 0.00 | 0.13 | 0.13 | 43 | 1011.3 |
| 20260506001627 | 11 | 269 | 14.5 | 16.1 | 0.00 | 0.13 | 0.13 | 43 | 1011.4 |
| 20260506001125 | 11 | 205 | 3.2 | 3.2 | 0.00 | 0.13 | 0.13 | 43 | 1011.1 |
| 20260506000622 | 11 | 295 | 11.3 | 16.1 | 0.00 | 0.13 | 0.13 | 42 | 1011.1 |
| 20260506000119 | 11 | 217 | 4.8 | 4.8 | 0.00 | 0.13 | 0.13 | 42 | 1011.1 |
| 20260505235617 | 11 | 293 | 12.9 | 16.1 | 0.00 | 0.13 | 0.13 | 42 | 1011.1 |
| 20260505235114 | 11 | 212 | 3.2 | 8.0 | 0.00 | 0.13 | 0.13 | 44 | 1011.2 |
| 20260505234611 | 11 | 287 | 4.8 | 4.8 | 0.00 | 0.13 | 0.13 | 42 | 1010.8 |
| 20260505234108 | 11 | 326 | 19.3 | 27.4 | 0.00 | 0.13 | 0.13 | 41 | 1010.8 |
| 20260505233606 | 11 | 206 | 14.5 | 24.1 | 0.00 | 0.13 | 0.13 | 41 | 1011.0 |
| 20260505233102 | 11 | 260 | 6.4 | 14.5 | 0.00 | 0.13 | 0.13 | 41 | 1010.7 |
| 20260505232600 | 11 | 249 | 11.3 | 14.5 | 0.00 | 0.13 | 0.13 | 40 | 1010.5 |
| 20260505232058 | 11 | 272 | 14.5 | 19.3 | 0.00 | 0.13 | 0.13 | 39 | 1010.7 |
| 20260505231554 | 11 | 201 | 3.2 | 4.8 | 0.00 | 0.13 | 0.13 | 39 | 1010.6 |
| 20260505231053 | 12 | 234 | 3.2 | 4.8 | 0.00 | 0.13 | 0.13 | 39 | 1010.5 |
| 20260505230550 | 12 | 299 | 16.1 | 19.3 | 0.00 | 0.13 | 0.13 | 38 | 1010.4 |
| 20260505230046 | 12 | 217 | 3.2 | 4.8 | 0.00 | 0.13 | 0.13 | 40 | 1010.6 |
| 20260505225543 | 12 | 268 | 8.0 | 11.3 | 0.00 | 0.13 | 0.13 | 39 | 1010.6 |
| 20260505225039 | 12 | 253 | 14.5 | 16.1 | 0.00 | 0.13 | 0.13 | 38 | 1010.8 |
| 20260505224536 | 12 | 211 | 6.4 | 8.0 | 0.00 | 0.13 | 0.13 | 38 | 1010.7 |
| 20260505224034 | 12 | 195 | 3.2 | 3.2 | 0.00 | 0.13 | 0.13 | 39 | 1010.7 |
| 20260505223531 | 12 | 254 | 8.0 | 8.0 | 0.00 | 0.13 | 0.13 | 38 | 1010.8 |
| 20260505223027 | 12 | 269 | 11.3 | 14.5 | 0.00 | 0.13 | 0.13 | 37 | 1010.7 |
| 20260505222523 | 12 | 210 | 6.4 | 8.0 | 0.00 | 0.13 | 0.13 | 39 | 1010.8 |
| 20260505222019 | 12 | 217 | 8.0 | 11.3 | 0.00 | 0.13 | 0.13 | 38 | 1010.5 |
| 20260505221517 | 12 | 235 | 9.7 | 11.3 | 0.00 | 0.13 | 0.13 | 38 | 1010.3 |
| 20260505221013 | 12 | 203 | 9.7 | 14.5 | 0.00 | 0.13 | 0.13 | 37 | 1010.6 |
| 20260505220510 | 12 | 285 | 9.7 | 14.5 | 0.00 | 0.13 | 0.13 | 37 | 1010.8 |
| 20260505220008 | 12 | 274 | 6.4 | 8.0 | 0.00 | 0.13 | 0.13 | 39 | 1010.6 |
| 20260505215506 | 12 | 276 | 1.6 | 3.2 | 0.00 | 0.13 | 0.13 | 41 | 1010.8 |
| 20260505215003 | 12 | 227 | 9.7 | 11.3 | 0.00 | 0.13 | 0.13 | 41 | 1010.5 |
| 20260505214502 | 12 | 271 | 8.0 | 11.3 | 0.00 | 0.13 | 0.13 | 40 | 1010.6 |
| 20260505213958 | 12 | 208 | 6.4 | 8.0 | 0.00 | 0.13 | 0.13 | 39 | 1010.8 |
| 20260505213456 | 12 | 255 | 3.2 | 4.8 | 0.00 | 0.13 | 0.13 | 40 | 1010.7 |
| 20260505212952 | 12 | 172 | 8.0 | 11.3 | 0.00 | 0.13 | 0.13 | 40 | 1010.8 |
| 20260505212449 | 12 | 208 | 4.8 | 8.0 | 0.00 | 0.13 | 0.13 | 42 | 1010.6 |
| 20260505211945 | 12 | 291 | 17.7 | 22.5 | 0.00 | 0.13 | 0.13 | 42 | 1010.5 |
| 20260505211443 | 12 | 257 | 12.9 | 16.1 | 0.00 | 0.13 | 0.13 | 42 | 1010.5 |
| 20260505210939 | 13 | 202 | 16.1 | 22.5 | 0.00 | 0.13 | 0.13 | 42 | 1010.8 |
| 20260505210436 | 13 | 215 | 3.2 | 3.2 | 0.00 | 0.13 | 0.13 | 44 | 1010.8 |
| 20260505205933 | 13 | 223 | 14.5 | 22.5 | 0.00 | 0.13 | 0.13 | 43 | 1010.7 |
| 20260505205432 | 13 | 220 | 3.2 | 3.2 | 0.00 | 0.13 | 0.13 | 46 | 1010.6 |
| 20260505204928 | 12 | 201 | 6.4 | 11.3 | 0.00 | 0.13 | 0.13 | 46 | 1010.5 |
| 20260505204426 | 12 | 211 | 3.2 | 4.8 | 0.00 | 0.13 | 0.13 | 46 | 1010.6 |
| 20260505203923 | 12 | 258 | 9.7 | 14.5 | 0.00 | 0.13 | 0.13 | 45 | 1010.7 |
| 20260505203419 | 13 | 196 | 11.3 | 16.1 | 0.00 | 0.13 | 0.13 | 47 | 1010.7 |
| 20260505202916 | 13 | 253 | 11.3 | 14.5 | 0.00 | 0.13 | 0.13 | 47 | 1010.8 |
| 20260505202412 | 13 | 279 | 17.7 | 27.4 | 0.00 | 0.13 | 0.13 | 48 | 1010.7 |
| 20260505201909 | 13 | 291 | 9.7 | 11.3 | 0.00 | 0.13 | 0.13 | 48 | 1010.6 |
| 20260505201406 | 13 | 235 | 11.3 | 14.5 | 0.00 | 0.13 | 0.13 | 48 | 1010.7 |
| 20260505200904 | 12 | 200 | 14.5 | 16.1 | 0.00 | 0.13 | 0.13 | 48 | 1010.7 |
| 20260505200401 | 12 | 235 | 4.8 | 8.0 | 0.00 | 0.13 | 0.13 | 49 | 1010.7 |
| 20260505195856 | 12 | 284 | 14.5 | 19.3 | 0.00 | 0.13 | 0.13 | 48 | 1010.8 |
| 20260505195354 | 12 | 230 | 3.2 | 3.2 | 0.00 | 0.13 | 0.13 | 51 | 1010.8 |
| 20260505194851 | 12 | 203 | 11.3 | 16.1 | 0.00 | 0.13 | 0.13 | 50 | 1010.7 |
| 20260505194348 | 12 | 321 | 6.4 | 8.0 | 0.00 | 0.13 | 0.13 | 50 | 1010.8 |
| 20260505193849 | 13 | 235 | 8.0 | 11.3 | 0.00 | 0.13 | 0.13 | 52 | 1010.8 |
| 20260505193347 | 12 | 226 | 11.3 | 11.3 | 0.00 | 0.13 | 0.13 | 51 | 1010.7 |
| 20260505192844 | 12 | 243 | 17.7 | 22.5 | 0.00 | 0.13 | 0.13 | 52 | 1010.5 |
| 20260505192342 | 12 | 193 | 8.0 | 11.3 | 0.00 | 0.13 | 0.13 | 56 | 1010.8 |
| 20260505191839 | 12 | 304 | 16.1 | 22.5 | 0.00 | 0.13 | 0.13 | 56 | 1010.8 |
| 20260505191338 | 12 | 261 | 9.7 | 14.5 | 0.00 | 0.13 | 0.13 | 58 | 1010.7 |
| 20260505190834 | 12 | 212 | 16.1 | 24.1 | 0.00 | 0.13 | 0.13 | 59 | 1010.7 |
| 20260505190330 | 12 | 217 | 1.6 | 3.2 | 0.00 | 0.13 | 0.13 | 62 | 1010.6 |
| 20260505185826 | 12 | 244 | 6.4 | 8.0 | 0.00 | 0.13 | 0.13 | 62 | 1010.6 |
| 20260505185322 | 12 | 205 | 3.2 | 3.2 | 0.00 | 0.13 | 0.13 | 63 | 1010.7 |
| 20260505184818 | 12 | 194 | 6.4 | 8.0 | 0.00 | 0.13 | 0.13 | 63 | 1010.8 |
| 20260505184316 | 12 | 214 | 6.4 | 8.0 | 0.00 | 0.13 | 0.13 | 62 | 1010.7 |
| 20260505183813 | 12 | 238 | 8.0 | 11.3 | 0.00 | 0.13 | 0.13 | 62 | 1010.7 |
| 20260505183309 | 12 | 280 | 6.4 | 8.0 | 0.00 | 0.13 | 0.13 | 62 | 1010.6 |
| 20260505182806 | 12 | 247 | 9.7 | 11.3 | 0.00 | 0.13 | 0.13 | 62 | 1010.5 |
| 20260505182305 | 12 | 234 | 16.1 | 19.3 | 0.00 | 0.13 | 0.13 | 64 | 1010.5 |
| 20260505181800 | 12 | 294 | 12.9 | 14.5 | 0.00 | 0.13 | 0.13 | 64 | 1010.3 |
| 20260505181257 | 12 | 201 | 3.2 | 4.8 | 0.00 | 0.13 | 0.13 | 64 | 1010.3 |
| 20260505180753 | 11 | 265 | 14.5 | 16.1 | 0.00 | 0.13 | 0.13 | 67 | 1010.2 |
| 20260505180250 | 11 | 191 | 6.4 | 8.0 | 0.00 | 0.13 | 0.13 | 68 | 1010.3 |
| 20260505175747 | 11 | 181 | 4.8 | 4.8 | 0.00 | 0.13 | 0.13 | 68 | 1010.3 |
| 20260505175243 | 11 | 173 | 3.2 | 3.2 | 0.00 | 0.13 | 0.13 | 70 | 1010.2 |
| 20260505174739 | 11 | 198 | 4.8 | 4.8 | 0.00 | 0.13 | 0.13 | 70 | 1010.1 |
| 20260505174237 | 11 | 223 | 4.8 | 4.8 | 0.00 | 0.13 | 0.13 | 71 | 1010.1 |
| 20260505173733 | 11 | 202 | 16.1 | 22.5 | 0.00 | 0.13 | 0.13 | 69 | 1009.9 |
| 20260505173230 | 11 | 205 | 3.2 | 4.8 | 0.00 | 0.13 | 0.13 | 70 | 1009.9 |
| 20260505172726 | 11 | 179 | 3.2 | 3.2 | 0.00 | 0.13 | 0.13 | 71 | 1010.2 |
| 20260505172224 | 11 | 207 | 9.7 | 14.5 | 0.00 | 0.13 | 0.13 | 70 | 1010.3 |
| 20260505171723 | 11 | 226 | 8.0 | 11.3 | 0.00 | 0.13 | 0.13 | 69 | 1009.9 |
| 20260505171221 | 11 | 278 | 8.0 | 11.3 | 0.00 | 0.13 | 0.13 | 71 | 1010.1 |
| 20260505170717 | 11 | 205 | 8.0 | 14.5 | 0.00 | 0.13 | 0.13 | 71 | 1010.3 |
| 20260505170214 | 11 | 243 | 3.2 | 4.8 | 0.00 | 0.13 | 0.13 | 72 | 1010.0 |
| 20260505165709 | 11 | 211 | 1.6 | 3.2 | 0.00 | 0.13 | 0.13 | 74 | 1009.9 |